KF5JED-13 Weather Reports


time (UTC)temp
F
wind
direction
speed
knots
gust
knots
rain 1hr
in
rain 24hr
in
rain mn
in
humidity
%
barometer
mb
20260507041116 48 9 9.6 13.0 0.00 0.00 0.00 61 1020.2
20260507040612 49 41 9.6 18.2 0.00 0.00 0.00 61 1020.2
20260507040103 49 20 13.0 15.6 0.00 0.00 0.00 60 1020.2
20260507035559 49 23 10.4 15.6 0.00 0.00 0.00 60 1020.2
20260507035055 49 15 14.8 20.9 0.00 0.00 0.00 60 1020.5
20260507034552 49 26 12.2 14.8 0.00 0.00 0.00 60 1020.1
20260507034050 50 7 14.8 19.1 0.00 0.00 0.00 60 1020.5
20260507033548 50 23 11.3 14.8 0.00 0.00 0.00 60 1020.1
20260507033045 50 12 13.0 14.8 0.00 0.00 0.00 61 1020.1
20260507032542 50 31 13.9 20.0 0.00 0.00 0.00 61 1019.9
20260507032038 50 25 14.8 23.5 0.00 0.00 0.00 62 1020.1
20260507031535 50 35 11.3 20.0 0.00 0.00 0.00 62 1020.1
20260507031032 51 41 12.2 18.2 0.00 0.00 0.00 61 1020.0
20260507030529 52 23 13.0 21.7 0.00 0.00 0.00 57 1019.4
20260507030027 52 5 10.4 17.4 0.00 0.00 0.00 56 1019.6
20260507025523 52 37 13.9 21.7 0.00 0.00 0.00 55 1019.4
20260507025021 53 30 11.3 19.1 0.00 0.00 0.00 54 1019.1
20260507024518 53 25 10.4 18.2 0.00 0.00 0.00 54 1019.4
20260507024015 53 16 11.3 20.0 0.00 0.00 0.00 53 1019.0
20260507023511 54 16 8.7 17.4 0.00 0.00 0.00 53 1019.0
20260507023009 54 4 11.3 12.2 0.00 0.00 0.00 53 1018.8
20260507022505 54 12 9.6 13.9 0.00 0.00 0.00 53 1018.7
20260507022000 55 35 7.8 18.2 0.00 0.00 0.00 54 1018.6
20260507021456 55 30 11.3 13.9 0.00 0.00 0.00 53 1018.2
20260507020953 55 21 8.7 14.8 0.00 0.00 0.00 53 1017.9
20260507020450 55 33 7.0 12.2 0.00 0.00 0.00 53 1017.9
20260507015947 55 30 9.6 13.0 0.00 0.00 0.00 53 1018.0
20260507015445 55 30 9.6 14.8 0.00 0.00 0.00 53 1017.5
20260507014936 55 42 9.6 13.0 0.00 0.00 0.00 53 1017.6
20260507014433 55 22 8.7 16.5 0.00 0.00 0.00 53 1017.1
20260507013929 55 56 10.4 12.2 0.00 0.00 0.00 52 1016.8
20260507013426 55 53 7.8 13.0 0.00 0.00 0.00 52 1016.6
20260507012924 56 69 9.6 13.9 0.00 0.00 0.00 51 1016.6
20260507012420 56 65 8.7 14.8 0.00 0.00 0.00 51 1016.2
20260507011917 56 82 7.8 13.0 0.00 0.00 0.00 51 1016.0
20260507011414 57 63 9.6 15.6 0.00 0.00 0.00 50 1015.7
20260507010914 57 82 13.0 15.6 0.00 0.00 0.00 49 1016.0
20260507010409 58 81 9.6 13.9 0.00 0.00 0.00 49 1015.8
20260507005907 58 72 7.8 15.6 0.00 0.00 0.00 48 1015.6
20260507005403 58 71 12.2 14.8 0.00 0.00 0.00 49 1015.6
20260507004900 59 82 9.6 14.8 0.00 0.00 0.00 48 1015.5
20260507004357 59 77 7.0 15.6 0.00 0.00 0.00 48 1015.3
20260507003854 59 106 7.8 13.9 0.00 0.00 0.00 48 1015.3
20260507003349 59 103 7.8 15.6 0.00 0.00 0.00 48 1015.2
20260507002845 59 71 8.7 15.6 0.00 0.00 0.00 48 1015.2
20260507002341 59 87 14.8 14.8 0.00 0.00 0.00 48 1015.1
20260507001839 59 87 13.9 15.6 0.00 0.00 0.00 48 1015.0
20260507001335 59 87 13.0 14.8 0.00 0.00 0.00 48 1014.7
20260507000832 59 94 10.4 15.6 0.00 0.00 0.00 48 1014.8
20260507000328 59 93 11.3 16.5 0.00 0.00 0.00 47 1014.9
20260506235824 59 84 8.7 15.6 0.00 0.00 0.00 48 1014.6
20260506235320 60 92 9.6 14.8 0.00 0.00 0.00 47 1014.6
20260506234817 60 99 6.1 20.9 0.00 0.00 0.00 48 1014.7
20260506234315 60 94 7.8 14.8 0.00 0.00 0.00 48 1014.7
20260506233812 60 80 14.8 18.2 0.00 0.00 0.00 47 1014.9
20260506233308 59 94 16.5 18.2 0.00 0.00 0.00 48 1015.1
20260506232805 60 87 7.0 13.9 0.00 0.00 0.00 48 1014.9
20260506232259 59 85 7.0 11.3 0.00 0.00 0.00 49 1015.0
20260506231751 59 72 13.0 16.5 0.00 0.00 0.00 48 1014.9
20260506231250 59 89 20.9 23.5 0.00 0.00 0.00 48 1015.0
20260506230746 60 62 12.2 22.6 0.00 0.00 0.00 48 1014.7
20260506230243 60 88 10.4 18.2 0.00 0.00 0.00 48 1014.7
20260506225739 60 66 9.6 17.4 0.00 0.00 0.00 48 1014.5
20260506225237 59 83 11.3 20.0 0.00 0.00 0.00 48 1014.7
20260506224733 60 79 7.8 15.6 0.00 0.00 0.00 48 1014.8
20260506224230 60 62 15.6 20.9 0.00 0.00 0.00 48 1014.7
20260506223726 60 94 9.6 17.4 0.00 0.00 0.00 48 1014.7
20260506223222 60 103 7.8 16.5 0.00 0.00 0.00 47 1014.7
20260506222720 60 54 13.9 18.2 0.00 0.00 0.00 48 1014.7
20260506222215 60 80 13.0 20.0 0.00 0.00 0.00 49 1014.7
20260506221713 61 79 11.3 13.0 0.00 0.00 0.00 47 1014.8
20260506221211 60 77 6.1 13.9 0.00 0.00 0.00 48 1014.8
20260506220708 61 84 10.4 15.6 0.00 0.00 0.00 48 1014.8
20260506220202 60 78 11.3 21.7 0.00 0.00 0.00 48 1014.8
20260506215659 60 58 7.8 15.6 0.00 0.00 0.00 47 1014.9
20260506215154 61 75 13.0 13.9 0.00 0.00 0.00 48 1015.0
20260506214652 61 95 18.2 18.2 0.00 0.00 0.00 47 1014.8
20260506214149 60 82 11.3 18.2 0.00 0.00 0.00 48 1014.9
20260506213648 59 64 10.4 16.5 0.00 0.00 0.00 50 1014.9
20260506213144 60 74 13.0 20.0 0.00 0.00 0.00 49 1015.0
20260506212642 60 83 12.2 20.9 0.00 0.00 0.00 49 1015.0
20260506212136 60 72 11.3 20.9 0.00 0.00 0.00 49 1014.9
20260506211632 60 107 11.3 14.8 0.00 0.00 0.00 48 1014.9
20260506211129 60 91 10.4 17.4 0.00 0.00 0.00 48 1014.9
20260506210627 61 66 11.3 16.5 0.00 0.00 0.00 48 1014.9
20260506210123 60 67 16.5 20.0 0.00 0.00 0.00 48 1014.9
20260506205620 61 79 14.8 16.5 0.00 0.00 0.00 47 1015.0
20260506205114 61 74 10.4 16.5 0.00 0.00 0.00 47 1015.0
20260506204613 61 64 9.6 12.2 0.00 0.00 0.00 47 1015.0
20260506204109 61 56 12.2 15.6 0.00 0.00 0.00 47 1015.1
20260506203608 63 69 16.5 18.2 0.00 0.00 0.00 44 1015.2
20260506203104 64 100 8.7 15.6 0.00 0.00 0.00 44 1015.1
20260506202602 62 91 4.3 11.3 0.00 0.00 0.00 46 1014.8
20260506202058 59 105 6.1 10.4 0.00 0.00 0.00 48 1015.1
20260506201555 59 98 3.5 11.3 0.00 0.00 0.00 49 1015.5
20260506201052 59 109 6.1 13.0 0.00 0.00 0.00 49 1014.9
20260506200548 60 54 14.8 17.4 0.00 0.00 0.00 48 1015.0
20260506200045 62 87 17.4 18.2 0.00 0.00 0.00 46 1015.0
20260506195542 60 143 3.5 13.0 0.00 0.00 0.00 48 1015.0
20260506195038 62 96 7.0 14.8 0.00 0.00 0.00 46 1014.9
20260506194536 60 84 12.2 16.5 0.00 0.00 0.00 48 1015.1
20260506194032 62 81 5.2 7.8 0.00 0.00 0.00 46 1015.3
20260506193530 60 95 7.0 9.6 0.00 0.00 0.00 49 1015.2
20260506193027 60 131 9.6 14.8 0.00 0.00 0.00 49 1015.3
20260506192524 60 42 4.3 13.0 0.00 0.00 0.00 48 1015.3
20260506192019 60 89 7.0 13.0 0.00 0.00 0.00 50 1015.6
20260506191516 58 94 7.8 8.7 0.00 0.00 0.00 50 1015.5
20260506191012 60 82 12.2 20.0 0.00 0.00 0.00 49 1015.5
20260506190510 59 85 10.4 15.6 0.00 0.00 0.00 50 1015.7
20260506190007 60 69 12.2 15.6 0.00 0.00 0.00 49 1015.7
20260506185504 59 96 6.1 7.8 0.00 0.00 0.00 50 1015.6
20260506185000 59 82 11.3 14.8 0.00 0.00 0.00 51 1015.7
20260506184457 59 99 7.0 8.7 0.00 0.00 0.00 53 1015.5
20260506183955 57 48 6.1 11.3 0.00 0.00 0.00 52 1015.8
20260506183450 58 37 7.0 12.2 0.00 0.00 0.00 50 1015.9
20260506182947 58 73 10.4 16.5 0.00 0.00 0.00 50 1015.9
20260506182444 58 55 7.0 9.6 0.00 0.00 0.00 51 1016.0
20260506181941 58 61 7.8 12.2 0.00 0.00 0.00 50 1016.2
20260506181439 57 68 5.2 10.4 0.00 0.00 0.00 52 1016.2
20260506180936 59 51 5.2 10.4 0.00 0.00 0.00 49 1016.5
20260506180432 58 21 4.3 5.2 0.00 0.00 0.00 49 1016.1
20260506175929 59 52 5.2 9.6 0.00 0.00 0.00 49 1016.3
20260506175426 57 99 3.5 6.1 0.00 0.00 0.00 51 1016.3
20260506174923 57 104 6.1 11.3 0.00 0.00 0.00 51 1016.1
20260506174421 58 107 5.2 9.6 0.00 0.00 0.00 51 1016.3
20260506173917 58 49 5.2 7.0 0.00 0.00 0.00 50 1016.5
20260506173414 57 82 6.1 10.4 0.00 0.00 0.00 52 1016.5
20260506172911 57 117 7.0 11.3 0.00 0.00 0.00 53 1016.6
20260506172407 57 134 6.1 9.6 0.00 0.00 0.00 52 1016.6
20260506171905 58 130 2.6 4.3 0.00 0.00 0.00 50 1016.3
20260506171402 56 89 7.0 9.6 0.00 0.00 0.00 54 1016.6
20260506170854 57 88 4.3 7.8 0.00 0.00 0.00 54 1016.6
20260506170350 55 86 8.7 14.8 0.00 0.00 0.00 55 1016.7
20260506165849 55 79 7.8 7.8 0.00 0.00 0.00 56 1016.6
20260506165347 54 206 4.3 5.2 0.00 0.00 0.00 55 1016.7
20260506164843 54 150 4.3 8.7 0.00 0.00 0.00 55 1016.5
20260506164340 57 79 4.3 6.1 0.00 0.00 0.00 52 1016.5
20260506163838 56 77 2.6 5.2 0.00 0.00 0.00 53 1016.3
20260506163332 54 66 5.2 9.6 0.00 0.00 0.00 56 1016.7
20260506162827 54 123 4.3 7.8 0.00 0.00 0.00 56 1016.3
20260506162325 52 136 1.7 7.0 0.00 0.00 0.00 58 1016.5
20260506161817 54 108 3.5 8.7 0.00 0.00 0.00 57 1016.6
20260506161314 52 71 1.7 5.2 0.00 0.00 0.00 60 1016.2
20260506160812 52 78 5.2 10.4 0.00 0.00 0.00 60 1016.2
20260506160308 52 91 7.8 9.6 0.00 0.00 0.00 61 1016.2
20260506155807 50 49 4.3 10.4 0.00 0.00 0.00 63 1016.3
20260506155306 51 82 6.1 7.8 0.00 0.00 0.00 61 1016.2
20260506153416 51 81 8.7 10.4 0.00 0.00 0.00 63 1016.0
20260506152914 50 81 7.8 13.0 0.00 0.00 0.00 61 1015.9
20260506152410 52 35 5.2 9.6 0.00 0.00 0.00 60 1015.9
20260506151909 50 45 6.1 9.6 0.00 0.00 0.00 62 1016.0
20260506151405 50 87 6.1 11.3 0.00 0.00 0.00 63 1015.9
20260506150903 49 104 5.2 8.7 0.00 0.00 0.00 63 1016.0
20260506150359 49 99 5.2 9.6 0.00 0.00 0.00 65 1016.0
20260506145855 49 102 7.8 15.6 0.00 0.00 0.00 63 1016.0
20260506145351 50 119 2.6 5.2 0.00 0.00 0.00 63 1016.0
20260506144849 48 99 4.3 8.7 0.00 0.00 0.00 65 1015.9
20260506144345 49 81 3.5 8.7 0.00 0.00 0.00 63 1015.6
20260506143845 49 83 7.0 9.6 0.00 0.00 0.00 64 1015.6
20260506143341 48 118 3.5 9.6 0.00 0.00 0.00 65 1015.3
20260506142839 48 98 7.0 11.3 0.00 0.00 0.00 67 1015.2
20260506142337 47 128 7.8 14.8 0.00 0.00 0.00 67 1015.0
20260506141835 47 126 8.7 14.8 0.00 0.00 0.00 68 1015.1
20260506141333 46 107 7.8 12.2 0.00 0.00 0.00 68 1015.2
20260506140831 47 93 7.0 11.3 0.00 0.00 0.00 69 1015.3
20260506140327 46 92 6.1 12.2 0.00 0.00 0.00 69 1015.3
20260506135824 45 92 7.8 18.2 0.00 0.00 0.00 70 1015.2
20260506135321 45 131 9.6 14.8 0.00 0.00 0.00 71 1015.2
20260506134817 44 104 10.4 13.9 0.00 0.00 0.00 72 1015.3
20260506134314 44 109 8.7 14.8 0.00 0.00 0.00 72 1015.3
20260506133811 44 87 7.8 13.0 0.00 0.00 0.00 73 1015.3
20260506133308 44 122 7.0 13.0 0.00 0.00 0.00 74 1015.3
20260506132804 44 117 7.8 12.2 0.00 0.00 0.00 74 1015.5
20260506132302 43 101 5.2 11.3 0.00 0.00 0.00 74 1015.7
20260506131800 43 102 7.8 13.9 0.00 0.00 0.00 75 1015.9
20260506131255 43 91 5.2 11.3 0.00 0.00 0.00 75 1016.1
20260506130752 43 107 6.1 9.6 0.00 0.00 0.00 75 1016.0
20260506130249 43 95 7.0 9.6 0.00 0.00 0.00 75 1015.9
20260506125747 43 113 5.2 8.7 0.00 0.00 0.00 75 1016.0
20260506125245 43 95 6.1 9.6 0.00 0.00 0.00 76 1016.0
20260506124743 42 105 4.3 9.6 0.00 0.00 0.00 76 1016.0
20260506124240 42 103 5.2 11.3 0.00 0.00 0.00 76 1015.6
20260506123738 42 100 6.1 9.6 0.00 0.00 0.00 76 1015.9
20260506123237 42 91 5.2 9.6 0.00 0.00 0.00 77 1015.9
20260506122733 42 110 6.1 8.7 0.00 0.00 0.00 77 1015.7
20260506122230 42 101 6.1 8.7 0.00 0.00 0.00 77 1015.6
20260506121728 42 112 3.5 8.7 0.00 0.00 0.00 77 1015.5
20260506121225 42 74 9.6 10.4 0.00 0.00 0.00 77 1015.5
20260506120722 42 85 7.0 11.3 0.00 0.00 0.00 78 1015.3
20260506120219 42 99 6.1 10.4 0.00 0.00 0.00 78 1015.0
20260506115717 42 108 9.6 12.2 0.00 0.00 0.00 78 1015.2
20260506115215 42 103 7.8 13.9 0.00 0.00 0.00 78 1015.2
20260506114713 42 104 12.2 15.6 0.00 0.00 0.00 79 1015.0
20260506114210 42 104 9.6 11.3 0.00 0.00 0.00 81 1015.2
20260506113708 42 87 7.0 11.3 0.00 0.00 0.00 82 1015.1
20260506113205 42 107 9.6 13.9 0.00 0.00 0.00 83 1015.0
20260506112701 42 77 9.6 12.2 0.00 0.00 0.00 84 1014.7
20260506112159 41 94 5.2 13.9 0.00 0.00 0.00 85 1014.7
20260506111657 41 102 6.1 13.0 0.00 0.00 0.00 86 1014.9
20260506111154 41 82 7.0 13.9 0.00 0.00 0.00 86 1014.9
20260506110651 42 88 9.6 12.2 0.00 0.00 0.00 86 1014.8
20260506110149 42 76 11.3 13.9 0.00 0.00 0.00 86 1015.2
20260506105645 42 72 8.7 13.9 0.00 0.00 0.00 86 1014.9
20260506105142 42 86 11.3 13.0 0.00 0.00 0.00 86 1015.1
20260506104640 42 80 10.4 13.9 0.00 0.00 0.00 86 1014.9
20260506104138 42 65 7.8 9.6 0.00 0.00 0.00 86 1014.8
20260506103635 43 78 10.4 10.4 0.00 0.00 0.00 86 1014.7
20260506103132 43 60 13.0 19.1 0.00 0.00 0.00 85 1014.9
20260506102630 43 94 11.3 16.5 0.00 0.00 0.00 85 1014.7
20260506102127 43 93 7.8 13.0 0.00 0.00 0.00 85 1014.8
20260506101623 43 79 7.8 11.3 0.00 0.00 0.00 85 1014.9
20260506101120 43 74 12.2 13.9 0.00 0.00 0.00 85 1014.7
20260506100619 43 61 9.6 13.9 0.00 0.00 0.00 85 1014.3
20260506100116 44 72 11.3 15.6 0.00 0.00 0.00 84 1014.5
20260506095615 44 69 6.1 13.0 0.00 0.00 0.00 83 1014.2
20260506095111 44 81 7.8 14.8 0.00 0.00 0.00 82 1014.1
20260506094609 44 85 7.8 13.9 0.00 0.00 0.00 82 1013.9
20260506094106 44 79 13.0 14.8 0.00 0.00 0.00 82 1013.8
20260506093605 44 91 11.3 13.9 0.00 0.00 0.00 81 1013.7
20260506093102 44 78 7.8 11.3 0.00 0.00 0.00 81 1013.6
20260506092600 44 67 10.4 15.6 0.00 0.00 0.00 81 1013.9
20260506092056 44 74 7.8 13.0 0.00 0.00 0.00 81 1013.7
20260506091554 44 74 7.0 11.3 0.00 0.00 0.00 81 1013.6
20260506091052 44 79 9.6 14.8 0.00 0.00 0.00 81 1013.5
20260506090549 44 75 8.7 14.8 0.00 0.00 0.00 81 1013.5
20260506090045 44 84 7.0 14.8 0.00 0.00 0.00 81 1013.6
20260506085542 44 66 8.7 16.5 0.00 0.00 0.00 81 1013.3
20260506085038 44 71 10.4 13.9 0.00 0.00 0.00 81 1013.7
20260506084536 44 83 7.8 11.3 0.00 0.00 0.00 81 1013.5
20260506084032 44 75 8.7 14.8 0.00 0.00 0.00 81 1013.7
20260506083529 44 70 12.2 15.6 0.00 0.00 0.00 80 1013.3
20260506083026 44 74 11.3 13.0 0.00 0.00 0.00 81 1013.6
20260506082523 44 87 7.0 10.4 0.00 0.00 0.00 81 1013.7
20260506082019 44 83 6.1 11.3 0.00 0.00 0.00 81 1013.3
20260506081517 44 72 7.8 13.0 0.00 0.00 0.00 80 1013.3
20260506081015 44 88 7.8 12.2 0.00 0.00 0.00 80 1013.3
20260506080512 44 78 8.7 8.7 0.00 0.00 0.00 80 1013.2
20260506073455 43 70 7.8 14.8 0.00 0.00 0.00 81 1012.5
20260506072952 43 81 9.6 14.8 0.00 0.00 0.00 81 1012.5
20260506072449 43 74 9.6 12.2 0.00 0.00 0.00 82 1012.6
20260506071947 43 71 7.8 11.3 0.00 0.00 0.00 82 1013.0
20260506071445 43 43 5.2 9.6 0.00 0.00 0.00 82 1013.3
20260506070942 42 61 6.1 7.8 0.00 0.00 0.00 82 1013.7
20260506070439 42 4 7.8 9.6 0.00 0.00 0.00 82 1013.6
20260506062416 44 69 8.7 11.3 0.00 0.00 0.00 79 1013.2
20260506061912 44 63 9.6 13.0 0.00 0.00 0.00 78 1013.1
20260506061409 44 77 9.6 16.5 0.00 0.00 0.00 78 1012.9
20260506060907 44 66 9.6 13.0 0.00 0.00 0.00 77 1012.9
20260506060404 44 65 9.6 11.3 0.00 0.00 0.00 77 1012.8
20260506051336 45 82 7.0 13.9 0.00 0.00 0.00 73 1011.9
20260506050834 46 84 6.1 11.3 0.00 0.00 0.00 73 1011.7
20260506050331 46 84 9.6 13.9 0.00 0.00 0.00 72 1011.5
20260506044822 46 83 9.6 13.0 0.00 0.00 0.00 71 1011.8
20260506044320 47 87 11.3 14.8 0.00 0.00 0.00 70 1011.7
20260506043816 47 87 7.8 18.2 0.00 0.00 0.00 69 1011.7
20260506043314 47 78 7.8 10.4 0.00 0.00 0.00 68 1011.7
20260506042812 47 79 7.8 12.2 0.00 0.00 0.00 67 1011.8
20260506042311 48 95 7.0 11.3 0.00 0.00 0.00 66 1011.6
20260506041809 48 74 8.7 12.2 0.00 0.00 0.00 66 1011.6